Home > Time Zones > World Clock > Weather > India > Dausa > Past weeks

Flag for India Weather past 2 weeks in Dausa, Rajasthan, India

Now
102 °F

Haze.


Feels Like: 98 °F
Forecast: 74 / 105 °F
Wind: 13 mph from Northwest

Location: Jaipur / Sanganer

Current Time: Apr 18, 2015 at 2:55:50 PM

Latest Report: Apr 18, 2015 at 2:00 PM


Visibility: 2 mi

Pressure: 29.68 "Hg

Humidity: 15%

Dew point: 46 °F

Location of DausaLocation

Historic Weather in Dausa — Graph

°F

Dausa temperature yesterday

Maximum temperature yesterday: 100 °F (at 3:30 PM)
Minimum temperature yesterday: 73 °F (at 6:00 AM)
Average temperature yesterday: 90 °F

Past Weeks' High & Low Weather Summary

 TemperatureHumidityPressure
High102 °F (Apr 9, 8:30 PM)100% (Apr 5, 8:00 AM)30.07 "Hg (Apr 5, 8:00 AM)
Low66 °F (Apr 4, 3:00 AM)10% (Apr 10, 4:30 PM)29.65 "Hg (Apr 3, 4:00 PM)
Average81 °F46%29.88 "Hg
* Reported Apr 3 2:00 PM — Apr 18 1:30 PM, Dausa, Weather by CustomWeather, © 2015

Note: Actual official high and low records may vary slightly from our data, if they occured in-between our weather recording intervals... More about our weather records

Advertising

Dausa weather history for previous 24 hours

 ConditionsComfort  
Time TempWeatherWind HumidityBarometerVisibility
1:30 PM
Sat, Apr 18
100 °FHaze.8 mph18%29.68 "Hg2 mi
1:00 PM100 °FHaze.9 mph18%29.71 "Hg2 mi
12:00 PM99 °FHaze.8 mph22%29.74 "Hg2 mi
11:00 AM95 °FHaze.7 mph26%29.74 "Hg2 mi
10:00 AM91 °FHaze.6 mph30%29.77 "Hg2 mi
9:00 AM90 °FHaze.5 mph33%29.77 "Hg2 mi
8:00 AM86 °FHaze.No wind40%29.74 "Hg1 mi
7:30 AM82 °FHaze.No wind45%29.74 "Hg2 mi
7:00 AM79 °FHaze.No wind51%29.71 "Hg2 mi
6:00 AM79 °FHaze.No wind51%29.71 "Hg1 mi
5:30 AM79 °FHaze.2 mph51%29.71 "Hg1 mi
5:00 AM81 °FHaze.2 mph45%29.71 "Hg1 mi
4:00 AM79 °FHaze.2 mph48%29.71 "Hg1 mi
2:00 AM82 °FHaze.No wind37%29.71 "Hg1 mi
1:00 AM84 °FHaze.3 mph45%29.71 "Hg1 mi
12:00 AM84 °FHaze.No wind45%29.74 "Hg1 mi
11:30 PM
Fri, Apr 17
84 °FHaze.No wind43%29.74 "Hg1 mi
11:00 PM86 °FHaze.No wind38%29.77 "Hg1 mi
10:00 PM86 °FHaze.No wind40%29.77 "Hg1 mi
9:00 PM90 °FHaze.No wind33%29.77 "Hg1 mi
7:00 PM97 °FHaze.3 mph19%29.74 "Hg2 mi
6:30 PM99 °FHaze.6 mph18%29.71 "Hg2 mi
6:00 PM99 °FHaze.7 mph18%29.71 "Hg3 mi
5:30 PM100 °FHaze.8 mph17%29.71 "Hg3 mi
5:00 PM100 °FHaze.9 mph17%29.74 "Hg3 mi
4:30 PM100 °FHaze.9 mph16%29.74 "Hg3 mi
4:00 PM100 °FHaze.10 mph20%29.74 "Hg3 mi
3:30 PM100 °FHaze.10 mph20%29.77 "Hg3 mi
2:30 PM99 °FHaze.10 mph21%29.80 "Hg2 mi
2:00 PM99 °FHaze.10 mph24%29.83 "Hg2 mi
Weather by CustomWeather, © 2015

See weather overviewHow to use our weather pages